Location: Enikep?du
(16.5133°N, 80.7066°E)
Time: 07:21:04
(UTC+00:00)

Cosmos 1726 - Pass Details

Date: 20 January 2020
Orbit: 482 x 500 km, 82.5° (Epoch: 18 February)

Event Time Altitude Azimuth Distance (km) Brightness Sun altitude
Rises 00:06:16 0° 183° (S) 2,568 5.9 -15.1°
Reaches altitude 10° 00:08:23 10° 183° (S) 1,685 5.0 -14.6°
Maximum altitude 00:12:04 87° 100° (E) 496 2.1 -13.8°
Drops below altitude 10° 00:15:45 10° 5° (N) 1,678 4.7 -13.0°
Sets 00:17:50 0° 5° (N) 2,557 5.6 -12.5°
